User: anonymous   Login
Location: Unspecified
(0.0000°N, 0.0000°E)
Time: 09:16:56
(UTC+00:00)
Language:

M3MSAT - Orbit

View from above orbital plane
View from above orbital plane
View from above satellite
View from above satellite

Ground track
Ground track

The orbit data is extracted from the following two-line orbital elements,

1 41605U 16040G   18109.80090986 +.00000587 +00000-0 +29867-4 0  9992
2 41605 097.4191 173.1614 0014058 086.7004 273.5839 15.20595505101269
Epoch (UTC): 19 April 2018 19:13:18
Eccentricity: 0.0014058
inclination: 97.4191°
perigee height: 494 km
apogee height: 514 km
right ascension of ascending node: 173.1614°
argument of perigee: 86.7004°
revolutions per day: 15.20595505
mean anomaly at epoch: 273.5839°
orbit number at epoch: 10126

The dashed part of the orbit path shows where the satellite is in the earth's shadow,  

DLR